Powrót do katalogu

OPS 4682 DEB

AktywnyPO
NORAD 38379·DEBRIS·🇺🇸 United States

Wystrzelony Apr 3, 1965 z Vandenberg Space Force Base

Loading…

Następne Przeloty (najbliższe 24 godziny)

TLE

ŚwieżeSource: Space-Track

Epoka: Sep 12, 2026, 01:40 UTC

1 38379U 65027CG  26255.06967319  .00000970  00000-0  31692-2 0  9990
2 38379  90.2448   5.9600 0025881  11.2734 348.8963 13.00556147643759

Śledź OPS 4682 DEB w czasie rzeczywistym z AllMySat

Download on the App Store